• In Netherlands
  • List of Countries
  • For 7 days
  • Water Temperature
  • Satellite Maps
  • Weather Map
  • Weather Widgets
  • user-avatar
    Login

    Hourly Weather Sozopol

    Today, 21 February, Tuesday

    Time Temperature Precipitation Wind Pressure Humidity
    00:00 +1°C° 0 mm 3 mps 761 mmHg 86%
    01:00 +1°C° 0 mm 3 mps 761 mmHg 86%
    02:00 +1°C° 0 mm 3 mps 760 mmHg 85%
    03:00 +1°C° 0 mm 3 mps 760 mmHg 84%
    04:00 +1°C° 0 mm 3 mps 760 mmHg 84%
    05:00 +1°C° 0 mm 3 mps 760 mmHg 84%
    06:00 +1°C° 0 mm 3 mps 760 mmHg 81%
    07:00 +1°C° 0 mm 3 mps 760 mmHg 79%
    08:00 +1°C° 0 mm 4 mps 759 mmHg 74%
    09:00 +4°C° 0 mm 4 mps 759 mmHg 68%
    10:00 +5°C° 0 mm 4 mps 759 mmHg 62%
    11:00 +7°C° 0 mm 4 mps 759 mmHg 56%
    12:00 +8°C° 0 mm 4 mps 759 mmHg 56%
    13:00 +8°C° 0 mm 4 mps 758 mmHg 55%
    14:00 +10°C° 0 mm 4 mps 757 mmHg 56%
    15:00 +8°C° 0 mm 4 mps 757 mmHg 62%
    16:00 +9°C° 0 mm 3 mps 757 mmHg 68%
    17:00 +8°C° 0 mm 3 mps 757 mmHg 73%
    18:00 +7°C° 0 mm 3 mps 757 mmHg 76%
    19:00 +5°C° 0 mm 3 mps 757 mmHg 79%
    20:00 +4°C° 0 mm 3 mps 757 mmHg 82%
    21:00 +4°C° 0 mm 4 mps 757 mmHg 82%
    22:00 +4°C° 0 mm 4 mps 757 mmHg 82%
    23:00 +4°C° 0 mm 4 mps 757 mmHg 82%

    Tomorrow, 22 February, Wednesday

    Time Temperature Precipitation Wind Pressure Humidity
    00:00 +4°C° 0.1 mm 4 mps 757 mmHg 82%
    01:00 +4°C° 0.1 mm 4 mps 757 mmHg 83%
    02:00 +3°C° 0.1 mm 5 mps 757 mmHg 83%
    03:00 +3°C° 0.3 mm 5 mps 757 mmHg 82%
    04:00 +3°C° 0.3 mm 5 mps 757 mmHg 82%
    05:00 +3°C° 0.3 mm 5 mps 757 mmHg 81%
    06:00 +3°C° 0 mm 5 mps 757 mmHg 80%
    07:00 +3°C° 0 mm 5 mps 757 mmHg 79%
    08:00 +3°C° 0 mm 5 mps 758 mmHg 78%
    09:00 +6°C° 0 mm 5 mps 758 mmHg 75%
    10:00 +7°C° 0 mm 5 mps 759 mmHg 72%
    11:00 +9°C° 0 mm 6 mps 759 mmHg 69%
    12:00 +10°C° 0 mm 5 mps 759 mmHg 67%
    13:00 +11°C° 0 mm 4 mps 759 mmHg 65%
    14:00 +12°C° 0 mm 4 mps 759 mmHg 64%
    15:00 +11°C° 0 mm 3 mps 759 mmHg 67%
    16:00 +12°C° 0 mm 2 mps 759 mmHg 71%
    17:00 +11°C° 0 mm 1 mps 759 mmHg 74%
    18:00 +9°C° 0 mm 2 mps 760 mmHg 77%
    19:00 +8°C° 0 mm 3 mps 760 mmHg 79%
    20:00 +7°C° 0 mm 3 mps 760 mmHg 82%
    21:00 +6°C° 0 mm 4 mps 760 mmHg 81%
    22:00 +6°C° 0 mm 4 mps 760 mmHg 81%
    23:00 +6°C° 0 mm 4 mps 760 mmHg 81%

    Day after tomorrow, 23 February, Thursday

    Time Temperature Precipitation Wind Pressure Humidity
    00:00 +5°C° 0 mm 4 mps 760 mmHg 81%
    01:00 +5°C° 0 mm 4 mps 759 mmHg 81%
    02:00 +5°C° 0 mm 4 mps 759 mmHg 81%
    03:00 +5°C° 0 mm 4 mps 759 mmHg 81%
    04:00 +5°C° 0 mm 5 mps 759 mmHg 81%
    05:00 +5°C° 0 mm 5 mps 759 mmHg 81%
    06:00 +5°C° 0 mm 5 mps 759 mmHg 81%
    07:00 +6°C° 0 mm 5 mps 759 mmHg 80%
    08:00 +6°C° 0 mm 5 mps 759 mmHg 80%
    09:00 +8°C° 0 mm 5 mps 759 mmHg 75%
    10:00 +10°C° 0 mm 6 mps 759 mmHg 71%
    11:00 +11°C° 0 mm 6 mps 759 mmHg 67%
    12:00 +13°C° 0 mm 6 mps 759 mmHg 65%
    13:00 +14°C° 0 mm 6 mps 759 mmHg 63%
    14:00 +15°C° 0 mm 6 mps 758 mmHg 62%
    15:00 +14°C° 0 mm 5 mps 758 mmHg 66%
    16:00 +14°C° 0 mm 5 mps 758 mmHg 70%
    17:00 +13°C° 0 mm 4 mps 758 mmHg 74%
    18:00 +12°C° 0 mm 4 mps 758 mmHg 77%
    19:00 +10°C° 0 mm 5 mps 758 mmHg 81%
    20:00 +9°C° 0 mm 5 mps 759 mmHg 84%
    21:00 +9°C° 0 mm 6 mps 759 mmHg 85%
    22:00 +9°C° 0 mm 6 mps 759 mmHg 87%
    23:00 +9°C° 0 mm 6 mps 759 mmHg 88%

    24 February, Friday

    Time Temperature Precipitation Wind Pressure Humidity
    00:00 +9°C° 0 mm 6 mps 759 mmHg 89%
    01:00 +8°C° 0 mm 6 mps 758 mmHg 90%
    02:00 +8°C° 0 mm 6 mps 758 mmHg 91%
    03:00 +8°C° 0 mm 6 mps 758 mmHg 91%
    04:00 +9°C° 0 mm 6 mps 757 mmHg 91%
    05:00 +9°C° 0 mm 7 mps 757 mmHg 92%
    06:00 +9°C° 0 mm 7 mps 757 mmHg 91%
    07:00 +9°C° 0 mm 7 mps 757 mmHg 90%
    08:00 +9°C° 0 mm 7 mps 757 mmHg 89%
    09:00 +10°C° 0 mm 8 mps 757 mmHg 85%
    10:00 +12°C° 0 mm 8 mps 757 mmHg 80%
    11:00 +13°C° 0 mm 8 mps 757 mmHg 76%
    12:00 +15°C° 0 mm 8 mps 757 mmHg 73%
    13:00 +15°C° 0 mm 8 mps 756 mmHg 70%
    14:00 +16°C° 0 mm 8 mps 756 mmHg 67%
    15:00 +15°C° 0 mm 7 mps 756 mmHg 70%
    16:00 +15°C° 0 mm 7 mps 756 mmHg 72%
    17:00 +14°C° 0 mm 6 mps 756 mmHg 74%
    18:00 +12°C° 0 mm 7 mps 756 mmHg 77%
    19:00 +11°C° 0 mm 7 mps 757 mmHg 80%
    20:00 +10°C° 0 mm 7 mps 757 mmHg 83%
    21:00 +10°C° 0 mm 7 mps 757 mmHg 84%
    22:00 +10°C° 0 mm 7 mps 757 mmHg 85%
    23:00 +10°C° 0 mm 8 mps 757 mmHg 86%

    25 February, Saturday

    Time Temperature Precipitation Wind Pressure Humidity
    00:00 +10°C° 0 mm 8 mps 757 mmHg 87%
    01:00 +10°C° 0 mm 8 mps 756 mmHg 87%
    02:00 +10°C° 0 mm 8 mps 756 mmHg 88%
    03:00 +10°C° 0 mm 8 mps 756 mmHg 88%
    04:00 +10°C° 0 mm 8 mps 756 mmHg 88%
    05:00 +10°C° 0 mm 8 mps 756 mmHg 89%
    06:00 +10°C° 0.1 mm 7 mps 756 mmHg 88%
    07:00 +10°C° 0.1 mm 6 mps 757 mmHg 88%
    08:00 +10°C° 0.1 mm 6 mps 757 mmHg 87%
    09:00 +9°C° 1 mm 6 mps 758 mmHg 87%
    10:00 +9°C° 1 mm 7 mps 759 mmHg 86%
    11:00 +8°C° 1 mm 7 mps 760 mmHg 85%
    12:00 +6°C° 1 mm 7 mps 761 mmHg 86%
    13:00 +5°C° 1 mm 7 mps 762 mmHg 87%
    14:00 +4°C° 1 mm 7 mps 762 mmHg 87%
    15:00 +5°C° 0.3 mm 5 mps 763 mmHg 87%
    16:00 +5°C° 0.3 mm 4 mps 764 mmHg 86%
    17:00 +5°C° 0.3 mm 3 mps 764 mmHg 85%
    18:00 +5°C° 0 mm 2 mps 765 mmHg 87%
    19:00 +4°C° 0 mm 2 mps 766 mmHg 89%
    20:00 +5°C° 0 mm 1 mps 766 mmHg 92%
    21:00 +4°C° 0 mm 1 mps 767 mmHg 92%
    22:00 +4°C° 0 mm 1 mps 767 mmHg 92%
    23:00 +4°C° 0 mm 1 mps 767 mmHg 92%

    26 February, Sunday

    Time Temperature Precipitation Wind Pressure Humidity
    00:00 +3°C° 0 mm 1 mps 767 mmHg 92%
    01:00 +3°C° 0 mm 1 mps 767 mmHg 91%
    02:00 +3°C° 0 mm 1 mps 767 mmHg 91%
    03:00 +3°C° 0 mm 1 mps 766 mmHg 90%
    04:00 +2°C° 0 mm 2 mps 766 mmHg 90%
    05:00 +2°C° 0 mm 2 mps 766 mmHg 89%
    06:00 +3°C° 0 mm 2 mps 765 mmHg 87%
    07:00 +3°C° 0 mm 2 mps 765 mmHg 86%
    08:00 +3°C° 0 mm 3 mps 765 mmHg 84%
    09:00 +4°C° 0 mm 3 mps 765 mmHg 79%
    10:00 +7°C° 0 mm 3 mps 765 mmHg 73%
    11:00 +8°C° 0 mm 4 mps 764 mmHg 68%
    12:00 +10°C° 0 mm 3 mps 763 mmHg 67%
    13:00 +11°C° 0 mm 3 mps 763 mmHg 67%
    14:00 +12°C° 0 mm 3 mps 762 mmHg 66%
    15:00 +11°C° 0 mm 3 mps 762 mmHg 71%
    16:00 +11°C° 0 mm 3 mps 761 mmHg 75%
    17:00 +10°C° 0 mm 2 mps 761 mmHg 79%
    18:00 +9°C° 0 mm 2 mps 761 mmHg 82%
    19:00 +8°C° 0 mm 2 mps 761 mmHg 85%
    20:00 +7°C° 0 mm 2 mps 761 mmHg 89%
    21:00 +7°C° 0 mm 2 mps 761 mmHg 88%
    22:00 +7°C° 0 mm 2 mps 761 mmHg 88%
    23:00 +7°C° 0 mm 2 mps 761 mmHg 88%
    Show more